ProjectID,Date,Electric Generation,Electric Utility Import,Facility Electric Load
,YYYY-MM-DD,kW,kW,kW
318,2016-01-01,0.0,,0.0
318,2016-01-02,0.0,,0.0
318,2016-01-03,0.0,,0.0
318,2016-01-04,0.0,,0.0
318,2016-01-05,0.0,,0.0
318,2016-01-06,62.9275,,62.9275
318,2016-01-07,61.32420833333333,,61.32420833333333
318,2016-01-08,37.55708333333333,,37.55708333333333
318,2016-01-09,15.109583333333333,,15.109583333333333
318,2016-01-10,22.9875,,22.9875
318,2016-01-11,29.991666666666664,,29.991666666666664
318,2016-01-12,16.499166666666667,,16.499166666666667
318,2016-01-13,16.26125,,16.26125
318,2016-01-14,1.5266666666666666,,1.5266666666666666
318,2016-01-15,16.835,,16.835
318,2016-01-16,12.53425,,12.53425
318,2016-01-17,13.033666666666667,,13.033666666666667
318,2016-01-18,31.323416666666663,,31.323416666666663
318,2016-01-19,51.26591666666667,,51.26591666666667
318,2016-01-20,16.179333333333332,,16.179333333333332
318,2016-01-21,16.326625,,16.326625
318,2016-01-22,36.141333333333336,,36.141333333333336
318,2016-01-23,36.50291666666667,,36.50291666666667
318,2016-01-24,61.54420833333333,,61.54420833333333
318,2016-01-25,34.651666666666664,,34.651666666666664
318,2016-01-26,18.110958333333333,,18.110958333333333
318,2016-01-27,29.072458333333334,,29.072458333333334
318,2016-01-28,35.804208333333335,,35.804208333333335
318,2016-01-29,16.315416666666668,,16.315416666666668
318,2016-01-30,57.228375,,57.228375
318,2016-01-31,28.847166666666666,,28.847166666666666
318,2016-02-01,36.84341666666666,,36.84341666666666
318,2016-02-02,68.77754166666666,,68.77754166666666
318,2016-02-03,7.959625,,7.959625
318,2016-02-04,22.72791666666667,,22.72791666666667
318,2016-02-05,38.423,,38.423
318,2016-02-06,40.18383333333333,,40.18383333333333
318,2016-02-07,68.61508333333333,,68.61508333333333
318,2016-02-08,43.818625,,43.818625
318,2016-02-09,17.42925,,17.42925
318,2016-02-10,29.563333333333333,,29.563333333333333
318,2016-02-11,22.265041666666665,,22.265041666666665
318,2016-02-12,26.876416666666668,,26.876416666666668
318,2016-02-13,15.062083333333334,,15.062083333333334
318,2016-02-14,15.150083333333333,,15.150083333333333
318,2016-02-15,2.268291666666667,,2.268291666666667
318,2016-02-16,1.6394583333333335,,1.6394583333333335
318,2016-02-17,3.597875,,3.597875
318,2016-02-18,15.493625,,15.493625
318,2016-02-19,6.044875,,6.044875
318,2016-02-20,13.158708333333335,,13.158708333333335
318,2016-02-21,7.700708333333334,,7.700708333333334
318,2016-02-22,17.474083333333333,,17.474083333333333
318,2016-02-23,6.0549583333333326,,6.0549583333333326
318,2016-02-24,2.769458333333333,,2.769458333333333
318,2016-02-25,3.922916666666667,,3.922916666666667
318,2016-02-26,16.401166666666665,,16.401166666666665
318,2016-02-27,17.5545,,17.5545
318,2016-02-28,16.884291666666666,,16.884291666666666
318,2016-02-29,9.432458333333333,,9.432458333333333
318,2016-03-01,12.312708333333333,,12.312708333333333
318,2016-03-02,11.387583333333334,,11.387583333333334
318,2016-03-03,15.546999999999999,,15.546999999999999
318,2016-03-04,7.364249999999999,,7.364249999999999
318,2016-03-05,11.209125,,11.209125
318,2016-03-06,14.136916666666666,,14.136916666666666
318,2016-03-07,16.548791666666666,,16.548791666666666
318,2016-03-08,28.028291666666664,,28.028291666666664
318,2016-03-09,84.33433333333333,,84.33433333333333
318,2016-03-10,10.211958333333333,,10.211958333333333
318,2016-03-11,39.42970833333333,,39.42970833333333
318,2016-03-12,82.31454166666667,,82.31454166666667
318,2016-03-13,33.875791666666665,,33.875791666666665
318,2016-03-14,14.419625000000002,,14.419625000000002
318,2016-03-15,26.17958333333333,,26.17958333333333
318,2016-03-16,45.746125,,45.746125
318,2016-03-17,71.47229166666666,,71.47229166666666
318,2016-03-18,29.412833333333335,,29.412833333333335
318,2016-03-19,97.78683333333333,,97.78683333333333
318,2016-03-20,58.859541666666665,,58.859541666666665
318,2016-03-21,70.59591666666667,,70.59591666666667
318,2016-03-22,78.01174999999999,,78.01174999999999
318,2016-03-23,38.08508333333334,,38.08508333333334
318,2016-03-24,82.93537500000001,,82.93537500000001
318,2016-03-25,40.86258333333333,,40.86258333333333
318,2016-03-26,104.84587499999999,,104.84587499999999
318,2016-03-27,68.075,,68.075
318,2016-03-28,33.51629166666667,,33.51629166666667
318,2016-03-29,136.125375,,136.125375
318,2016-03-30,133.70870833333333,,133.70870833333333
318,2016-03-31,72.49745833333334,,72.49745833333334
318,2016-04-01,51.930416666666666,,51.930416666666666
318,2016-04-02,72.574375,,72.574375
318,2016-04-03,65.209125,,65.209125
318,2016-04-04,0.36333333333333334,,0.36333333333333334
318,2016-04-05,12.156041666666667,,12.156041666666667
318,2016-04-06,51.449625,,51.449625
318,2016-04-07,39.442166666666665,,39.442166666666665
318,2016-04-08,55.85166666666667,,55.85166666666667
318,2016-04-09,45.50341666666667,,45.50341666666667
318,2016-04-10,114.99845833333335,,114.99845833333335
318,2016-04-11,33.144083333333334,,33.144083333333334
318,2016-04-12,79.15095833333334,,79.15095833333334
318,2016-04-13,133.74458333333334,,133.74458333333334
318,2016-04-14,150.27812500000002,,150.27812500000002
318,2016-04-15,149.29433333333333,,149.29433333333333
318,2016-04-16,146.83962499999998,,146.83962499999998
318,2016-04-17,144.11791666666667,,144.11791666666667
318,2016-04-18,145.239375,,145.239375
318,2016-04-19,103.52520833333334,,103.52520833333334
318,2016-04-20,152.28158333333332,,152.28158333333332
318,2016-04-21,121.70687500000001,,121.70687500000001
318,2016-04-22,53.457125,,53.457125
318,2016-04-23,76.4815,,76.4815
318,2016-04-24,155.43529166666667,,155.43529166666667
318,2016-04-25,93.80341666666668,,93.80341666666668
318,2016-04-26,37.060291666666664,,37.060291666666664
318,2016-04-27,156.67845833333334,,156.67845833333334
318,2016-04-28,86.87220833333333,,86.87220833333333
318,2016-04-29,46.83029166666666,,46.83029166666666
318,2016-04-30,60.20008333333333,,60.20008333333333
318,2016-05-01,23.621791666666667,,23.621791666666667
318,2016-05-02,38.14004166666667,,38.14004166666667
318,2016-05-03,34.274125,,34.274125
318,2016-05-04,52.59129166666667,,52.59129166666667
318,2016-05-05,43.55745833333333,,43.55745833333333
318,2016-05-06,27.34583333333333,,27.34583333333333
318,2016-05-07,90.11149999999999,,90.11149999999999
318,2016-05-08,98.02558333333333,,98.02558333333333
318,2016-05-09,154.379,,154.379
318,2016-05-10,125.16754166666668,,125.16754166666668
318,2016-05-11,138.67204166666667,,138.67204166666667
318,2016-05-12,143.84120833333333,,143.84120833333333
318,2016-05-13,53.972791666666666,,53.972791666666666
318,2016-05-14,65.238375,,65.238375
318,2016-05-15,82.49754166666666,,82.49754166666666
318,2016-05-16,130.239,,130.239
318,2016-05-17,52.595124999999996,,52.595124999999996
318,2016-05-18,121.68441666666666,,121.68441666666666
318,2016-05-19,113.74679166666665,,113.74679166666665
318,2016-05-20,151.15908333333334,,151.15908333333334
318,2016-05-21,51.15966666666667,,51.15966666666667
318,2016-05-22,60.53983333333333,,60.53983333333333
318,2016-05-23,133.81329166666666,,133.81329166666666
318,2016-05-24,122.4825,,122.4825
318,2016-05-25,127.78008333333334,,127.78008333333334
318,2016-05-26,98.18554166666667,,98.18554166666667
318,2016-05-27,95.44408333333332,,95.44408333333332
318,2016-05-28,118.62904166666668,,118.62904166666668
318,2016-05-29,95.58854166666667,,95.58854166666667
318,2016-05-30,95.64979166666666,,95.64979166666666
318,2016-05-31,108.28066666666666,,108.28066666666666
318,2016-06-01,112.99995833333332,,112.99995833333332
318,2016-06-02,69.93045833333333,,69.93045833333333
318,2016-06-03,71.98116666666667,,71.98116666666667
318,2016-06-04,82.25987500000001,,82.25987500000001
318,2016-06-05,28.419916666666666,,28.419916666666666
318,2016-06-06,123.031875,,123.031875
318,2016-06-07,88.82304166666667,,88.82304166666667
318,2016-06-08,46.30866666666666,,46.30866666666666
318,2016-06-09,126.90162500000001,,126.90162500000001
318,2016-06-10,128.22975,,128.22975
318,2016-06-11,78.300125,,78.300125
318,2016-06-12,95.55149999999999,,95.55149999999999
318,2016-06-13,59.22270833333334,,59.22270833333334
318,2016-06-14,133.59445833333334,,133.59445833333334
318,2016-06-15,122.673875,,122.673875
318,2016-06-16,99.41995833333334,,99.41995833333334
318,2016-06-17,126.40570833333334,,126.40570833333334
318,2016-06-18,117.06908333333332,,117.06908333333332
318,2016-06-19,121.70245833333333,,121.70245833333333
318,2016-06-20,113.58079166666666,,113.58079166666666
318,2016-06-21,122.04424999999999,,122.04424999999999
318,2016-06-22,109.45383333333332,,109.45383333333332
318,2016-06-23,93.64854166666667,,93.64854166666667
318,2016-06-24,131.17125000000001,,131.17125000000001
318,2016-06-25,110.52220833333332,,110.52220833333332
318,2016-06-26,123.83479166666666,,123.83479166666666
318,2016-06-27,60.079625,,60.079625
318,2016-06-28,64.21508333333334,,64.21508333333334
318,2016-06-29,62.14341666666667,,62.14341666666667
318,2016-06-30,119.51058333333333,,119.51058333333333
318,2016-07-01,83.68120833333333,,83.68120833333333
318,2016-07-02,107.63554166666667,,107.63554166666667
318,2016-07-03,110.467625,,110.467625
318,2016-07-04,118.15258333333333,,118.15258333333333
318,2016-07-05,86.16945833333334,,86.16945833333334
318,2016-07-06,112.38687499999999,,112.38687499999999
318,2016-07-07,75.67208333333333,,75.67208333333333
318,2016-07-08,90.67216666666667,,90.67216666666667
318,2016-07-09,99.43374999999999,,99.43374999999999
318,2016-07-10,60.02879166666667,,60.02879166666667
318,2016-07-11,113.6785,,113.6785
318,2016-07-12,106.09525000000001,,106.09525000000001
318,2016-07-13,92.64604166666668,,92.64604166666668
318,2016-07-14,102.51841666666667,,102.51841666666667
318,2016-07-15,98.20595833333334,,98.20595833333334
318,2016-07-16,87.65116666666667,,87.65116666666667
318,2016-07-17,103.76583333333333,,103.76583333333333
318,2016-07-18,63.61600000000001,,63.61600000000001
318,2016-07-19,99.93379166666666,,99.93379166666666
318,2016-07-20,122.19158333333333,,122.19158333333333
318,2016-07-21,122.90904166666667,,122.90904166666667
318,2016-07-22,90.54575,,90.54575
318,2016-07-23,113.99108333333334,,113.99108333333334
318,2016-07-24,100.05229166666668,,100.05229166666668
318,2016-07-25,63.838750000000005,,63.838750000000005
318,2016-07-26,111.93900000000001,,111.93900000000001
318,2016-07-27,106.45975,,106.45975
318,2016-07-28,81.46241666666667,,81.46241666666667
318,2016-07-29,96.93641666666667,,96.93641666666667
318,2016-07-30,40.09908333333333,,40.09908333333333
318,2016-07-31,45.498916666666666,,45.498916666666666
318,2016-08-01,53.77754166666667,,53.77754166666667
318,2016-08-02,87.53804166666667,,87.53804166666667
318,2016-08-03,85.9925,,85.9925
318,2016-08-04,92.70329166666666,,92.70329166666666
318,2016-08-05,102.9495,,102.9495
318,2016-08-06,94.67479166666668,,94.67479166666668
318,2016-08-07,104.92470833333334,,104.92470833333334
318,2016-08-08,119.47666666666667,,119.47666666666667
318,2016-08-09,110.14995833333334,,110.14995833333334
318,2016-08-10,67.94558333333333,,67.94558333333333
318,2016-08-11,75.55754166666667,,75.55754166666667
318,2016-08-12,87.91558333333334,,87.91558333333334
318,2016-08-13,91.69554166666667,,91.69554166666667
318,2016-08-14,54.53808333333333,,54.53808333333333
318,2016-08-15,66.47291666666666,,66.47291666666666
318,2016-08-16,74.37904166666667,,74.37904166666667
318,2016-08-17,84.366125,,84.366125
318,2016-08-18,76.70608333333332,,76.70608333333332
318,2016-08-19,105.35304166666667,,105.35304166666667
318,2016-08-20,108.52116666666666,,108.52116666666666
318,2016-08-21,23.38308333333333,,23.38308333333333
318,2016-08-22,86.56154166666666,,86.56154166666666
318,2016-08-23,105.91941666666666,,105.91941666666666
318,2016-08-24,104.70204166666667,,104.70204166666667
318,2016-08-25,46.61358333333334,,46.61358333333334
318,2016-08-26,78.01841666666667,,78.01841666666667
318,2016-08-27,88.24766666666666,,88.24766666666666
318,2016-08-28,82.94687499999999,,82.94687499999999
318,2016-08-29,87.578375,,87.578375
318,2016-08-30,93.43904166666665,,93.43904166666665
318,2016-08-31,35.43383333333333,,35.43383333333333
318,2016-09-01,64.252875,,64.252875
318,2016-09-02,79.43775000000001,,79.43775000000001
318,2016-09-03,100.98725,,100.98725
318,2016-09-04,92.50279166666667,,92.50279166666667
318,2016-09-05,91.96241666666667,,91.96241666666667
318,2016-09-06,101.760625,,101.760625
318,2016-09-07,93.40258333333333,,93.40258333333333
318,2016-09-08,74.32829166666666,,74.32829166666666
318,2016-09-09,35.46375,,35.46375
318,2016-09-10,72.62266666666666,,72.62266666666666
318,2016-09-11,85.206,,85.206
318,2016-09-12,90.873875,,90.873875
318,2016-09-13,92.41945833333334,,92.41945833333334
318,2016-09-14,57.16558333333333,,57.16558333333333
318,2016-09-15,94.62525,,94.62525
318,2016-09-16,93.703375,,93.703375
318,2016-09-17,58.95066666666667,,58.95066666666667
318,2016-09-18,39.329625,,39.329625
318,2016-09-19,43.48325,,43.48325
318,2016-09-20,77.42204166666666,,77.42204166666666
318,2016-09-21,85.17858333333334,,85.17858333333334
318,2016-09-22,93.92216666666667,,93.92216666666667
318,2016-09-23,63.502833333333335,,63.502833333333335
318,2016-09-24,89.70462500000001,,89.70462500000001
318,2016-09-25,103.385625,,103.385625
318,2016-09-26,80.038,,80.038
318,2016-09-27,98.96508333333333,,98.96508333333333
318,2016-09-28,79.57575,,79.57575
318,2016-09-29,23.510583333333333,,23.510583333333333
318,2016-09-30,21.036708333333333,,21.036708333333333
318,2016-10-01,34.607,,34.607
318,2016-10-02,26.948166666666665,,26.948166666666665
318,2016-10-03,56.96641666666667,,56.96641666666667
318,2016-10-04,31.18641666666667,,31.18641666666667
318,2016-10-05,84.926,,84.926
318,2016-10-06,90.24891666666667,,90.24891666666667
318,2016-10-07,74.69175,,74.69175
318,2016-10-08,16.414291666666667,,16.414291666666667
318,2016-10-09,47.621375,,47.621375
318,2016-10-10,98.82183333333334,,98.82183333333334
318,2016-10-11,82.58354166666668,,82.58354166666668
318,2016-10-12,87.94808333333333,,87.94808333333333
318,2016-10-13,20.560166666666667,,20.560166666666667
318,2016-10-14,89.09008333333333,,89.09008333333333
318,2016-10-15,88.98854166666666,,88.98854166666666
318,2016-10-16,53.333499999999994,,53.333499999999994
318,2016-10-17,24.692958333333333,,24.692958333333333
318,2016-10-18,78.57579166666666,,78.57579166666666
318,2016-10-19,56.673458333333336,,56.673458333333336
318,2016-10-20,20.52241666666667,,20.52241666666667
318,2016-10-21,11.291875,,11.291875
318,2016-10-22,8.850541666666667,,8.850541666666667
318,2016-10-23,26.022333333333332,,26.022333333333332
318,2016-10-24,27.432625,,27.432625
318,2016-10-25,22.646041666666665,,22.646041666666665
318,2016-10-26,31.041875,,31.041875
318,2016-10-27,4.068041666666667,,4.068041666666667
318,2016-10-28,20.96891666666667,,20.96891666666667
318,2016-10-29,46.99504166666667,,46.99504166666667
318,2016-10-30,14.175916666666666,,14.175916666666666
318,2016-10-31,38.554916666666664,,38.554916666666664
318,2016-11-01,63.932625,,63.932625
318,2016-11-02,43.693000000000005,,43.693000000000005
318,2016-11-03,12.720291666666666,,12.720291666666666
318,2016-11-04,62.764541666666666,,62.764541666666666
318,2016-11-05,27.179875,,27.179875
318,2016-11-06,63.678583333333336,,63.678583333333336
318,2016-11-07,65.87920833333334,,65.87920833333334
318,2016-11-08,60.68645833333333,,60.68645833333333
318,2016-11-09,3.9807083333333337,,3.9807083333333337
318,2016-11-10,68.56666666666666,,68.56666666666666
318,2016-11-11,23.879166666666666,,23.879166666666666
318,2016-11-12,71.93120833333333,,71.93120833333333
318,2016-11-13,69.7685,,69.7685
318,2016-11-14,62.96379166666667,,62.96379166666667
318,2016-11-15,23.466458333333335,,23.466458333333335
318,2016-11-16,53.675999999999995,,53.675999999999995
318,2016-11-17,22.19033333333333,,22.19033333333333
318,2016-11-18,47.389625,,47.389625
318,2016-11-19,56.85183333333333,,56.85183333333333
318,2016-11-20,2.2671666666666668,,2.2671666666666668
318,2016-11-21,0.31275000000000003,,0.31275000000000003
318,2016-11-22,0.34395833333333337,,0.34395833333333337
318,2016-11-23,1.6199583333333332,,1.6199583333333332
318,2016-11-24,0.617375,,0.617375
318,2016-11-25,9.449375,,9.449375
318,2016-11-26,13.415666666666667,,13.415666666666667
318,2016-11-27,18.820625,,18.820625
318,2016-11-28,55.6695,,55.6695
318,2016-11-29,5.278958333333333,,5.278958333333333
318,2016-11-30,6.2216249999999995,,6.2216249999999995
318,2016-12-01,7.4312499999999995,,7.4312499999999995
318,2016-12-02,11.923375,,11.923375
318,2016-12-03,12.314041666666666,,12.314041666666666
318,2016-12-04,35.16825,,35.16825
318,2016-12-05,12.351875,,12.351875
318,2016-12-06,18.961166666666667,,18.961166666666667
318,2016-12-07,10.045875,,10.045875
318,2016-12-08,17.426041666666666,,17.426041666666666
318,2016-12-09,32.38829166666667,,32.38829166666667
318,2016-12-10,10.388291666666666,,10.388291666666666
318,2016-12-11,14.463916666666668,,14.463916666666668
318,2016-12-12,0.5275833333333334,,0.5275833333333334
318,2016-12-13,11.898708333333333,,11.898708333333333
318,2016-12-14,2.211125,,2.211125
318,2016-12-15,11.976791666666665,,11.976791666666665
318,2016-12-16,3.9260416666666664,,3.9260416666666664
318,2016-12-17,0.33625,,0.33625
318,2016-12-18,5.010625,,5.010625
318,2016-12-19,50.01595833333334,,50.01595833333334
318,2016-12-20,45.37016666666667,,45.37016666666667
318,2016-12-21,29.167041666666666,,29.167041666666666
318,2016-12-22,7.859708333333334,,7.859708333333334
318,2016-12-23,37.266,,37.266
318,2016-12-24,5.312833333333333,,5.312833333333333
318,2016-12-25,15.265916666666667,,15.265916666666667
318,2016-12-26,6.359749999999999,,6.359749999999999
318,2016-12-27,28.692999999999998,,28.692999999999998
318,2016-12-28,12.620166666666668,,12.620166666666668
318,2016-12-29,4.26075,,4.26075
318,2016-12-30,12.518541666666666,,12.518541666666666
318,2016-12-31,18.674833333333336,,18.674833333333336
318,2017-01-01,55.708625000000005,,55.708625000000005
318,2017-01-02,6.500291666666667,,6.500291666666667
318,2017-01-03,4.984666666666667,,4.984666666666667
318,2017-01-04,24.99245833333333,,24.99245833333333
318,2017-01-05,28.648791666666668,,28.648791666666668
318,2017-01-06,9.370125,,9.370125
318,2017-01-07,13.875375,,13.875375
318,2017-01-08,18.799833333333336,,18.799833333333336
318,2017-01-09,19.250333333333334,,19.250333333333334
318,2017-01-10,7.9950833333333335,,7.9950833333333335
318,2017-01-11,42.62016666666667,,42.62016666666667
318,2017-01-12,5.9768333333333326,,5.9768333333333326
318,2017-01-13,38.44045833333333,,38.44045833333333
318,2017-01-14,11.766,,11.766
318,2017-01-15,11.677333333333332,,11.677333333333332
318,2017-01-16,54.00279166666667,,54.00279166666667
318,2017-01-17,3.950833333333333,,3.950833333333333
318,2017-01-18,6.239916666666667,,6.239916666666667
318,2017-01-19,12.135708333333334,,12.135708333333334
318,2017-01-20,9.596666666666666,,9.596666666666666
318,2017-01-21,40.779041666666664,,40.779041666666664
318,2017-01-22,37.09925,,37.09925
318,2017-01-23,11.609666666666667,,11.609666666666667
318,2017-01-24,0.7450833333333334,,0.7450833333333334
318,2017-01-25,3.247666666666667,,3.247666666666667
318,2017-01-26,12.898791666666668,,12.898791666666668
318,2017-01-27,17.036791666666666,,17.036791666666666
318,2017-01-28,14.859708333333332,,14.859708333333332
318,2017-01-29,26.33883333333333,,26.33883333333333
318,2017-01-30,48.911791666666666,,48.911791666666666
318,2017-01-31,1.7346666666666666,,1.7346666666666666
318,2017-02-01,10.552458333333332,,10.552458333333332
318,2017-02-02,6.708708333333333,,6.708708333333333
318,2017-02-03,31.08883333333333,,31.08883333333333
318,2017-02-04,80.239875,,80.239875
318,2017-02-05,19.500291666666666,,19.500291666666666
318,2017-02-06,48.49504166666667,,48.49504166666667
318,2017-02-07,6.286791666666667,,6.286791666666667
318,2017-02-08,21.164416666666668,,21.164416666666668
318,2017-02-09,1.6955833333333334,,1.6955833333333334
318,2017-02-10,5.286791666666667,,5.286791666666667
318,2017-02-11,9.273666666666667,,9.273666666666667
318,2017-02-12,0.6929166666666666,,0.6929166666666666
318,2017-02-13,1.8597083333333335,,1.8597083333333335
318,2017-02-14,18.747666666666667,,18.747666666666667
318,2017-02-15,18.570666666666668,,18.570666666666668
318,2017-02-16,25.088875,,25.088875
318,2017-02-17,70.18258333333334,,70.18258333333334
318,2017-02-18,73.89608333333334,,73.89608333333334
318,2017-02-19,79.17475,,79.17475
318,2017-02-20,92.2165,,92.2165
318,2017-02-21,47.284166666666664,,47.284166666666664
318,2017-02-22,45.24254166666666,,45.24254166666666
318,2017-02-23,50.51591666666667,,50.51591666666667
318,2017-02-24,47.922291666666666,,47.922291666666666
318,2017-02-25,14.880541666666666,,14.880541666666666
318,2017-02-26,35.216458333333335,,35.216458333333335
318,2017-02-27,77.99254166666667,,77.99254166666667
318,2017-02-28,69.85183333333333,,69.85183333333333
318,2017-03-01,24.531541666666666,,24.531541666666666
318,2017-03-02,69.37791666666666,,69.37791666666666
318,2017-03-03,43.47420833333334,,43.47420833333334
318,2017-03-04,52.15654166666667,,52.15654166666667
318,2017-03-05,97.22941666666667,,97.22941666666667
318,2017-03-06,55.096583333333335,,55.096583333333335
318,2017-03-07,16.95875,,16.95875
318,2017-03-08,70.30758333333334,,70.30758333333334
318,2017-03-09,76.088875,,76.088875
318,2017-03-10,31.031541666666666,,31.031541666666666
318,2017-03-11,22.94820833333333,,22.94820833333333
318,2017-03-12,62.15145833333333,,62.15145833333333
318,2017-03-13,73.409125,,73.409125
318,2017-03-14,0.33108333333333334,,0.33108333333333334
318,2017-03-15,0.33108333333333334,,0.33108333333333334
318,2017-03-16,0.32845833333333335,,0.32845833333333335
318,2017-03-17,0.5680416666666667,,0.5680416666666667
318,2017-03-18,0.41958333333333336,,0.41958333333333336
318,2017-03-19,0.7137916666666667,,0.7137916666666667
318,2017-03-20,0.7008333333333333,,0.7008333333333333
318,2017-03-21,9.24775,,9.24775
318,2017-03-22,32.2425,,32.2425
318,2017-03-23,42.03675,,42.03675
318,2017-03-24,27.745166666666666,,27.745166666666666
318,2017-03-25,12.213875,,12.213875
318,2017-03-26,19.049791666666668,,19.049791666666668
318,2017-03-27,43.768499999999996,,43.768499999999996
318,2017-03-28,19.0185,,19.0185
318,2017-03-29,80.46116666666667,,80.46116666666667
318,2017-03-30,53.125458333333334,,53.125458333333334
318,2017-03-31,12.008125,,12.008125
318,2017-04-01,20.172208333333334,,20.172208333333334
318,2017-04-02,81.43258333333334,,81.43258333333334
318,2017-04-03,64.82579166666666,,64.82579166666666
318,2017-04-04,43.890875,,43.890875
318,2017-04-05,68.73479166666667,,68.73479166666667
318,2017-04-06,13.190375000000001,,13.190375000000001
318,2017-04-07,47.98466666666667,,47.98466666666667
318,2017-04-08,115.71895833333333,,115.71895833333333
318,2017-04-09,117.91958333333334,,117.91958333333334
318,2017-04-10,94.23466666666667,,94.23466666666667
318,2017-04-11,86.91179166666666,,86.91179166666666
318,2017-04-12,69.88575,,69.88575
318,2017-04-13,83.026375,,83.026375
318,2017-04-14,118.88833333333334,,118.88833333333334
318,2017-04-15,80.43516666666666,,80.43516666666666
318,2017-04-16,79.37004166666667,,79.37004166666667
318,2017-04-17,107.03679166666666,,107.03679166666666
318,2017-04-18,118.25029166666667,,118.25029166666667
318,2017-04-19,34.56545833333333,,34.56545833333333
318,2017-04-20,41.323166666666665,,41.323166666666665
318,2017-04-21,60.47683333333333,,60.47683333333333
318,2017-04-22,40.068083333333334,,40.068083333333334